Location: Long Point Provincial Park
(42.5794°N, 80.4103°W)
Time: 13:45:17
(UTC-04:00)

Hubble Space Telescope - Visible Passes

Search period start: 27 May 2018 00:00
Search period end: 06 June 2018 00:00
Orbit: 537 x 541 km, 28.5° (Epoch: 26 May)

Date Brightness Start Highest point End Pass type
(mag) Time Alt. Az. Time Alt. Az. Time Alt. Az.
31 May 3.0 05:11:05 10° S 05:12:10 11° S 05:13:15 10° SSE visible
01 Jun 2.9 05:00:23 10° SSW 05:01:41 11° S 05:02:58 10° SSE visible
02 Jun 2.9 04:49:50 10° SSW 04:51:12 11° S 04:52:33 10° SSE visible
03 Jun 2.9 04:39:52 11° SSW 04:40:42 11° S 04:41:59 10° SSE visible
04 Jun 2.9 04:30:12 11° S 04:30:13 11° S 04:31:16 10° S visible
